Weather History for Pontiac, MI

Change the Weather History Date:

Wednesday, November 7, 2012

  Actual Average Record
Temperature  
Mean Temperature 38 °F -  
Max Temperature 46 °F 47 °F 69 °F (1996)
Min Temperature 30 °F 33 °F 26 °F (2002)
Degree Days  
Heating Degree Days 27    
Moisture  
Dew Point 27 °F    
Average Humidity 70    
Maximum Humidity 88    
Minimum Humidity 44    
Precipitation  
Precipitation 0.00 in - - ()
Sea Level Pressure  
Sea Level Pressure 30.06 in    
Wind  
Wind Speed 7 mph (NE)    
Max Wind Speed 9 mph    
Max Gust Speed -    
Visibility 9 miles    
Events      
Averages and records for this station are not official NWS values.
T = Trace of Precipitation, MM = Missing Value Source: NWS Daily Summary

Daily Weather History Graph

Daily Weather History Graph

Search for Another Location

Airport:

Trip Planner

Search our weather history database for the weather conditions in past years. The results will help you decide how hot, cold, wet, or windy it might be!

Date:

Astronomy

Nov. 07, 2012 Rise Set
Actual Time 7:15 AM EST 5:18 PM EST
Civil Twilight 6:45 AM EST 5:48 PM EST
Nautical Twilight 6:12 AM EST 6:21 PM EST
Astronomical Twilight 5:39 AM EST 6:55 PM EST
Moon No Moon Rise 1:35 PM EST (11/7)
Length of Visible Light 11h 02m
Length of Day
10h 02m
Last Quarter, 43% of the Moon is Illuminated
Nov 7
Last Quarter
Nov 13
New
Nov 20
First Quarter
Nov 28
Full
Dec 6
Last Quarter

Hourly Weather History & Observations

Time (EST) Temp. Windchill Dew Point Humidity Pressure Visibility Wind Dir Wind Speed Gust Speed Precip Events Conditions
12:53 AM 30.9 °F 23.5 °F 25.0 °F 79% 30.01 in 10.0 mi ENE 8.1 mph - N/A   Scattered Clouds
1:15 AM 32.0 °F 24.8 °F 24.8 °F 75% 29.98 in 10.0 mi ENE 8.1 mph - N/A   Mostly Cloudy
1:53 AM 32.0 °F 25.6 °F 24.1 °F 73% 30.01 in 10.0 mi ENE 6.9 mph - N/A   Mostly Cloudy
2:53 AM 32.0 °F 26.4 °F 24.1 °F 73% 30.01 in 10.0 mi NE 5.8 mph - N/A   Overcast
3:53 AM 33.1 °F 26.1 °F 25.0 °F 72% 30.01 in 10.0 mi ENE 8.1 mph - N/A   Overcast
4:39 AM 33.8 °F 27.7 °F 24.8 °F 70% 29.99 in 10.0 mi NE 6.9 mph - N/A   Overcast
4:53 AM 33.1 °F 26.1 °F 25.0 °F 72% 30.01 in 10.0 mi NE 8.1 mph - N/A   Overcast
5:53 AM 32.0 °F 24.2 °F 26.1 °F 79% 30.03 in 10.0 mi NE 9.2 mph - N/A   Scattered Clouds
6:53 AM 30.2 °F 26.7 °F 26.6 °F 86% 30.01 in 7.0 mi North 3.5 mph - N/A   Scattered Clouds
7:53 AM 30.0 °F 24.1 °F 27.0 °F 88% 30.05 in 5.0 mi North 5.8 mph - N/A   Partly Cloudy
8:53 AM 34.0 °F 28.0 °F 28.9 °F 82% 30.06 in 7.0 mi NE 6.9 mph - N/A   Partly Cloudy
9:15 AM 33.8 °F 27.0 °F 28.4 °F 81% 30.03 in 7.0 mi NE 8.1 mph - N/A   Mostly Cloudy
9:45 AM 37.4 °F 32.1 °F 30.2 °F 75% 30.04 in 8.0 mi NE 6.9 mph - N/A   Mostly Cloudy
9:53 AM 37.0 °F 33.3 °F 30.0 °F 76% 30.06 in 8.0 mi ENE 4.6 mph - N/A   Mostly Cloudy
10:02 AM 37.4 °F 32.8 °F 30.2 °F 75% 30.04 in 8.0 mi NE 5.8 mph - N/A   Scattered Clouds
10:53 AM 41.0 °F 35.8 °F 30.9 °F 67% 30.09 in 10.0 mi East 8.1 mph - N/A   Scattered Clouds
11:53 AM 42.1 °F 39.2 °F 30.0 °F 62% 30.09 in 10.0 mi NE 4.6 mph - N/A   Scattered Clouds
12:53 PM 46.0 °F 43.1 °F 28.0 °F 50% 30.06 in 10.0 mi East 5.8 mph - N/A   Scattered Clouds
1:53 PM 46.0 °F 43.1 °F 27.0 °F 47% 30.06 in 10.0 mi SE 5.8 mph - N/A   Scattered Clouds
2:53 PM 46.0 °F 43.9 °F 25.0 °F 44% 30.06 in 10.0 mi Variable 4.6 mph - N/A   Scattered Clouds
3:53 PM 46.0 °F 43.1 °F 25.0 °F 44% 30.06 in 10.0 mi NNE 5.8 mph - N/A   Partly Cloudy
4:53 PM 44.1 °F 40.8 °F 24.1 °F 45% 30.08 in 10.0 mi NNE 5.8 mph - N/A   Partly Cloudy
5:53 PM 41.0 °F 37.1 °F 25.0 °F 53% 30.10 in 10.0 mi NE 5.8 mph - N/A   Partly Cloudy
6:53 PM 39.0 °F 33.4 °F 28.0 °F 65% 30.13 in 10.0 mi NE 8.1 mph - N/A   Partly Cloudy
7:53 PM 36.0 °F 29.6 °F 28.9 °F 76% 30.14 in 10.0 mi ENE 8.1 mph - N/A   Clear
8:53 PM 34.0 °F 31.0 °F 27.0 °F 75% 30.15 in 10.0 mi ENE 3.5 mph - N/A   Clear
9:53 PM 30.9 °F 27.5 °F 26.1 °F 82% 30.17 in 9.0 mi North 3.5 mph - N/A   Clear
10:53 PM 30.0 °F - 26.1 °F 85% 30.16 in 8.0 mi Calm Calm - N/A   Clear
11:53 PM 30.0 °F - 25.0 °F 82% 30.16 in 8.0 mi Calm Calm - N/A   Clear